Find PRSC-E03

NORAD ID: 68835 Int'l Des: 2026-092A Country: PRC operational
LEOCIRCULAR

实时位置

正在加载3D地球...

关于 PRSC-E03

正在加载描述...

即将过境

Passes for default location (London). Set your location on the main map for personalized predictions.

高度历史

Loading altitude history...

两行轨道根数

1 68835U 26092A 26121.65943729 .00003030 00000-0 20873-3 0 9995
2 68835 38.0027 3.9979 0004185 358.3995 1.6752 15.06444699 930
Epoch: May 1, 2026 • Age: 9 hours

当前状态

高度 551.8 km
速度 7.59 km/s
星下点 -13.71°S, 30.17°W
类型 other

Most Searched